DW3672 Weather Reports


time (UTC)temp
F
wind
direction
speed
knots
gust
knots
rain 1hr
in
rain 24hr
in
rain mn
in
humidity
%
barometer
mb
20260507033603 63 303 0.9 4.3 0.00 0.00 0.00 76 1019.3
20260507032703 64 296 0.9 3.5 0.00 0.00 0.00 74 1019.3
20260507031803 64 286 0.9 5.2 0.00 0.00 0.00 73 1019.0
20260507030903 64 284 1.7 5.2 0.00 0.00 0.00 73 1018.7
20260507030003 64 264 1.7 4.3 0.00 0.00 0.00 71 1018.7
20260507025617 64 263 1.7 4.3 0.00 0.00 0.00 71 1018.7
20260507024503 64 258 2.6 6.1 0.00 0.00 0.00 71 1018.7
20260507023603 65 277 1.7 6.1 0.00 0.00 0.00 72 1018.7
20260507022703 66 286 2.6 7.8 0.00 0.00 0.00 69 1018.7
20260507022016 66 292 2.6 7.0 0.00 0.00 0.00 68 1018.7
20260507020903 67 298 3.5 7.0 0.00 0.00 0.00 66 1018.3
20260507020003 68 273 2.6 7.0 0.00 0.00 0.00 65 1018.3
20260507015404 68 264 2.6 7.0 0.00 0.00 0.00 67 1018.3
20260507014718 68 280 3.5 9.6 0.00 0.00 0.00 65 1018.3
20260507013603 68 266 4.3 9.6 0.00 0.00 0.00 64 1018.3
20260507012919 69 261 3.5 9.6 0.00 0.00 0.00 62 1018.0
20260507011803 69 283 3.5 12.2 0.00 0.00 0.00 61 1018.0
20260507010903 69 264 4.3 11.3 0.00 0.00 0.00 60 1018.0
20260507010003 70 280 4.3 11.3 0.00 0.00 0.00 61 1018.0
20260507005403 70 270 4.3 9.6 0.00 0.00 0.00 62 1018.0
20260507004504 69 282 4.3 9.6 0.00 0.00 0.00 63 1018.0
20260507003603 70 277 4.3 10.4 0.00 0.00 0.00 62 1018.0
20260507002703 71 274 4.3 10.4 0.00 0.00 0.00 60 1018.0
20260507001803 70 284 4.3 9.6 0.00 0.00 0.00 61 1017.6
20260507000903 71 266 4.3 11.3 0.00 0.00 0.00 59 1017.6
20260507000219 71 273 4.3 11.3 0.00 0.00 0.00 61 1017.6
20260506235403 72 289 4.3 9.6 0.00 0.00 0.00 59 1017.6
20260506234503 71 284 4.3 10.4 0.00 0.00 0.00 60 1017.6
20260506233817 71 285 4.3 12.2 0.00 0.00 0.00 60 1017.6
20260506232703 72 263 5.2 12.2 0.00 0.00 0.00 60 1018.0
20260506231803 72 272 4.3 10.4 0.00 0.00 0.00 59 1018.0
20260506230904 72 258 3.5 9.6 0.00 0.00 0.00 58 1018.0
20260506230003 72 271 4.3 11.3 0.00 0.00 0.00 59 1018.0
20260506225403 72 268 3.5 9.6 0.00 0.00 0.00 59 1018.0
20260506224503 72 266 4.3 10.4 0.00 0.00 0.00 57 1018.3
20260506223818 72 265 4.3 10.4 0.00 0.00 0.00 58 1018.0
20260506222918 73 253 3.5 13.0 0.00 0.00 0.00 56 1018.3
20260506221803 72 274 4.3 13.0 0.00 0.00 0.00 56 1018.3
20260506221118 73 253 4.3 13.0 0.00 0.00 0.00 55 1018.3
20260506220003 74 273 3.5 8.7 0.00 0.00 0.00 56 1018.7
20260506215404 73 269 3.5 9.6 0.00 0.00 0.00 56 1018.7
20260506214503 74 270 3.5 9.6 0.00 0.00 0.00 55 1018.7
20260506213818 73 251 4.3 10.4 0.00 0.00 0.00 58 1018.7
20260506212703 73 210 3.5 11.3 0.00 0.00 0.00 54 1018.7
20260506211803 73 227 4.3 13.9 0.00 0.00 0.00 56 1018.7
20260506210903 73 188 3.5 8.7 0.00 0.00 0.00 54 1019.0
20260506210003 74 237 2.6 10.4 0.00 0.00 0.00 54 1019.0
20260506205617 73 254 3.5 10.4 0.00 0.00 0.00 54 1019.0
20260506204718 74 241 2.6 8.7 0.00 0.00 0.00 54 1019.0
20260506203603 74 249 2.6 8.7 0.00 0.00 0.00 55 1019.0
20260506202703 74 192 3.5 8.7 0.00 0.00 0.00 55 1019.3
20260506202018 73 200 3.5 8.7 0.00 0.00 0.00 57 1019.3
20260506200903 74 171 3.5 7.0 0.00 0.00 0.00 55 1019.3
20260506200003 73 172 3.5 7.8 0.00 0.00 0.00 55 1019.3
20260506195403 73 206 3.5 9.6 0.00 0.00 0.00 56 1019.7
20260506194504 72 137 4.3 8.7 0.00 0.00 0.00 57 1019.7
20260506193603 74 160 2.6 8.7 0.00 0.00 0.00 55 1019.7
20260506192703 72 235 2.6 8.7 0.00 0.00 0.00 56 1020.0
20260506191803 73 102 1.7 5.2 0.00 0.00 0.00 55 1020.0
20260506190904 71 142 3.5 8.7 0.00 0.00 0.00 55 1020.0
20260506190003 72 145 3.5 8.7 0.00 0.00 0.00 55 1020.0
20260506185404 70 137 2.6 7.0 0.00 0.00 0.00 56 1020.4
20260506184503 70 102 2.6 7.0 0.00 0.00 0.00 57 1020.4
20260506183603 71 122 2.6 7.0 0.00 0.00 0.00 56 1020.4
20260506182704 72 164 1.7 5.2 0.00 0.00 0.00 55 1020.4
20260506181803 69 209 1.7 5.2 0.00 0.00 0.00 58 1020.4
20260506180903 70 160 1.7 5.2 0.00 0.00 0.00 58 1020.7
20260506180005 68 113 2.6 7.8 0.00 0.00 0.00 58 1020.4
20260506175403 68 140 3.5 7.8 0.00 0.00 0.00 60 1020.7
20260506174717 68 190 1.7 7.0 0.00 0.00 0.00 61 1020.7
20260506173603 66 190 2.6 6.1 0.00 0.00 0.00 64 1021.0
20260506172703 68 122 2.6 5.2 0.00 0.00 0.00 62 1020.7
20260506171804 66 134 1.7 5.2 0.00 0.00 0.00 65 1020.7
20260506170903 66 296 0.9 3.5 0.00 0.00 0.00 67 1020.7
20260506170003 66 117 2.6 6.1 0.00 0.00 0.00 67 1020.4
20260506165403 68 113 1.7 4.3 0.00 0.00 0.00 64 1020.7
20260506164717 67 113 2.6 5.2 0.00 0.00 0.00 65 1020.4
20260506163603 66 103 1.7 6.1 0.00 0.00 0.00 67 1020.7
20260506162703 66 176 0.9 3.5 0.00 0.00 0.00 67 1020.7
20260506161803 65 145 2.6 6.1 0.00 0.00 0.00 70 1020.7
20260506160903 66 112 2.6 5.2 0.00 0.00 0.00 69 1020.7
20260506160217 64 107 3.5 7.8 0.00 0.00 0.00 72 1020.7
20260506155403 65 103 2.6 7.0 0.00 0.00 0.00 73 1020.7
20260506154503 63 124 2.6 7.0 0.00 0.00 0.00 76 1020.7
20260506153603 62 103 2.6 5.2 0.00 0.00 0.00 78 1020.7
20260506152703 63 126 1.7 5.2 0.00 0.00 0.00 78 1021.0
20260506151803 62 102 2.6 5.2 0.00 0.00 0.00 79 1020.7
20260506151117 61 91 2.6 4.3 0.00 0.00 0.00 79 1021.0
20260506150003 61 70 2.6 5.2 0.00 0.00 0.00 80 1020.7
20260506145403 61 77 2.6 5.2 0.00 0.00 0.00 79 1020.7
20260506144718 61 74 2.6 5.2 0.00 0.00 0.00 80 1020.7
20260506143603 60 63 2.6 4.3 0.00 0.00 0.00 81 1020.7
20260506142703 59 64 2.6 5.2 0.00 0.00 0.00 82 1020.7
20260506142018 59 81 2.6 4.3 0.00 0.00 0.00 82 1020.7
20260506140903 58 73 2.6 5.2 0.00 0.00 0.00 83 1020.4
20260506140216 57 74 2.6 5.2 0.00 0.00 0.00 83 1020.4
20260506135403 57 64 2.6 4.3 0.00 0.00 0.00 83 1020.0
20260506134504 56 39 2.6 4.3 0.00 0.00 0.00 86 1020.4
20260506133603 55 65 1.7 3.5 0.00 0.00 0.00 88 1020.4
20260506132703 54 64 1.7 3.5 0.00 0.00 0.00 90 1020.4
20260506131803 53 35 2.6 5.2 0.00 0.00 0.00 92 1020.4
20260506130903 53 50 1.7 4.3 0.00 0.00 0.00 93 1020.0
20260506130003 53 51 1.7 3.5 0.00 0.00 0.00 93 1020.0
20260506125403 53 56 1.7 3.5 0.00 0.00 0.00 93 1020.0
20260506124503 53 101 1.7 3.5 0.00 0.00 0.00 94 1019.7
20260506123603 53 73 0.9 3.5 0.00 0.00 0.00 94 1019.3
20260506122703 53 95 1.7 3.5 0.00 0.00 0.00 93 1019.7
20260506121803 54 107 0.9 3.5 0.00 0.00 0.00 92 1019.7
20260506120903 54 89 1.7 3.5 0.00 0.00 0.00 92 1019.7
20260506120003 54 101 1.7 3.5 0.00 0.00 0.00 92 1019.7
20260506115403 54 65 1.7 3.5 0.00 0.00 0.00 91 1019.7
20260506114717 54 75 0.9 3.5 0.00 0.00 0.00 91 1019.7
20260506113603 55 84 1.7 1.7 0.00 0.00 0.00 91 1019.3
20260506112703 55 86 1.7 3.5 0.00 0.00 0.00 90 1019.3
20260506111803 56 89 1.7 4.3 0.00 0.00 0.00 90 1019.3
20260506111118 56 90 2.6 4.3 0.00 0.00 0.00 90 1019.3
20260506110003 56 90 1.7 3.5 0.00 0.00 0.00 90 1019.0
20260506105403 56 86 1.7 2.6 0.00 0.00 0.00 91 1019.3
20260506104504 55 97 1.7 3.5 0.00 0.00 0.00 91 1019.3
20260506103603 55 90 1.7 2.6 0.00 0.00 0.00 90 1019.3
20260506102703 56 85 1.7 2.6 0.00 0.00 0.00 90 1019.3
20260506102019 56 78 1.7 2.6 0.00 0.00 0.00 90 1019.3
20260506100903 56 86 1.7 2.6 0.00 0.00 0.00 89 1019.3
20260506100003 56 89 1.7 2.6 0.00 0.00 0.00 89 1019.3
20260506095403 56 83 1.7 2.6 0.00 0.00 0.00 89 1019.3
20260506094503 56 78 1.7 2.6 0.00 0.00 0.00 89 1019.3
20260506093604 56 75 1.7 2.6 0.00 0.00 0.00 89 1019.7
20260506092703 56 69 0.9 1.7 0.00 0.00 0.00 89 1019.7
20260506091803 56 85 1.7 2.6 0.00 0.00 0.00 89 1019.7
20260506090903 56 69 1.7 2.6 0.00 0.00 0.00 89 1019.7
20260506090217 56 70 1.7 2.6 0.00 0.00 0.00 89 1019.7
20260506085403 56 69 1.7 2.6 0.00 0.00 0.00 89 1019.7
20260506084503 57 93 1.7 2.6 0.00 0.00 0.00 89 1019.7
20260506083603 57 89 1.7 2.6 0.00 0.00 0.00 88 1019.7
20260506082703 57 96 1.7 2.6 0.00 0.00 0.00 88 1020.0
20260506081803 57 98 1.7 2.6 0.00 0.00 0.00 88 1019.7
20260506080903 57 101 1.7 3.5 0.00 0.00 0.00 87 1020.0
20260506072703 58 108 2.6 3.5 0.00 0.00 0.00 82 1020.0
20260506071803 58 108 1.7 3.5 0.00 0.00 0.00 82 1020.0
20260506070903 58 99 1.7 2.6 0.00 0.00 0.00 80 1019.7
20260506062017 57 101 0.9 1.7 0.00 0.00 0.00 82 1019.3
20260506060904 57 103 0.0 1.7 0.00 0.00 0.00 82 1019.3
20260506060218 58 77 0.0 1.7 0.00 0.00 0.00 80 1019.3
20260506050903 59 130 0.0 1.7 0.00 0.00 0.00 77 1019.0
20260506044503 60 148 0.0 1.7 0.00 0.00 0.00 77 1018.7
20260506043603 60 146 0.0 1.7 0.00 0.00 0.00 76 1018.7
20260506042703 60 139 0.0 1.7 0.00 0.00 0.00 76 1018.3
20260506041803 60 114 0.0 0.9 0.00 0.00 0.00 75 1018.3
20260506040903 61 313 0.0 1.7 0.00 0.00 0.00 73 1018.3
20260506040003 61 42 0.0 1.7 0.00 0.00 0.00 72 1018.0
20260506035403 61 246 0.0 1.7 0.00 0.00 0.00 71 1018.0
20260506034503 62 267 0.9 2.6 0.00 0.00 0.00 70 1018.0